• MPC Preparation (Info)

  • MPEC 2012-X08 : 2005 VE7

    The following Minor Planet Electronic Circular may be linked-to from your own Web pages, but must not otherwise be redistributed electronically.

    A form allowing access to any MPEC is at the bottom of this page.


    Read MPEC 2012-X07 Read MPEC 2012-X09


    M.P.E.C. 2012-X08                                Issued 2012 Dec. 4, 02:31 UT
    
         The Minor Planet Electronic Circulars contain information on unusual
             minor planets and routine data on comets.  They are published
       on behalf of Commission 20 of the International Astronomical Union by the
              Minor Planet Center, Smithsonian Astrophysical Observatory,
                              Cambridge, MA 02138, U.S.A.
    
                 Prepared using the Tamkin Foundation Computer Network
    
                                  MPC@CFA.HARVARD.EDU
                URL https://www.minorplanetcenter.net/    ISSN 1523-6714
    
                                       2005 VE7
    
                               Revision to MPEC 2005-V82
    
    Additional Observations:
         K05V07E KC2012 12 01.82607 22 37 09.53 +05 31 13.6                uEX008J95
         K05V07E KC2012 12 01.83446 22 37 12.41 +05 31 24.9          19.0 RuEX008J95
         K05V07E KC2012 12 01.86123 22 37 21.59 +05 32 04.8                uEX008J95
         K05V07E KC2012 12 01.87005 22 37 24.60 +05 32 18.0          19.2 RuEX008J95
         K05V07E KC2012 12 03.80854 22 48 16.19 +06 18 20.3                uEX008J95
         K05V07E KC2012 12 03.81471 22 48 18.19 +06 18 28.8                uEX008J95
         K05V07E KC2012 12 03.82090 22 48 20.21 +06 18 36.8          19.5 RuEX008J95
    
    Observer details:
    J95 Great Shefford.  Observer P. Birtwhistle.  0.40-m f/6.0 Schmidt-Cassegrain
        + CCD.
    
    First and last observations above in comparison with prediction:
    Residuals in seconds of arc (or two decimals in degrees), reference and Delta-T
    121201 J95 0.45- 0.25-    121203 J95 0.44- 0.24-    MPO230213   +0.33 day
    
    Orbital elements:
    2005 VE7                                                 Earth MOID = 0.1206 AU
    Epoch 2012 Sept. 30.0 TT = JDT 2456200.5                MPC
    M   0.27794              (2000.0)            P               Q
    n   0.27677814     Peri.   14.03406     +0.52305846     +0.84284214
    a   2.3319265      Node   287.64136     -0.79422255     +0.42811963
    e   0.7158339      Incl.    7.63403     -0.30922546     +0.32608391
    P   3.56           H   18.4           G   0.15           U   2
    Residuals in seconds of arc
    051112 703  0.6-  0.3+    051114 754  0.1-  0.3+    051125 G96  0.1-  0.1-
    051112 703  0.4-  0.3-    051114 754  0.4+  0.3-    051125 G96  0.2-  0.2-
    051112 703  0.2-  0.2+    051114 754  0.1-  0.4+    051125 G96  0.2+  0.2-
    051112 703  0.5+  0.7+    051114 754  0.0   0.2+    051204 448  0.3-  1.3+
    051112 703  0.0   0.1-    051114 754  0.3-  0.2+    051204 448  1.3-  0.9-
    051112 703  0.7-  0.5-    051114 754  0.8-  0.8+    051204 448  0.3-  0.2+
    051112 703  0.4-  0.8-    051114 754  0.3+  0.4+    051206 645  0.2+  0.1-
    051112 J95  0.1+  0.5-    051114 754  0.0   0.0     051206 645  0.0   0.1+
    051112 J95  0.0   0.0     051114 754  0.1+  0.2+    051206 645  0.0   0.1-
    051112 J95  0.2+  0.2-    051114 754  0.0   0.0     051206 645  0.1-  0.1+
    051112 198  0.2-  0.1+    051114 754  0.4-  0.0     051216 J95  0.1-  0.2-
    051112 198  0.1-  0.2+    051114 754  0.3-  0.4+    051216 J95  0.2-  0.1-
    051113 H36 (1.7+  2.1-)   051114 754  0.5-  0.1-    051216 J95  0.3-  0.0
    051113 H36  0.2-  0.9-    051114 754  0.2+  0.3+    051231 696  0.1+  0.1+
    051113 H36  0.1+  0.5+    051114 754  0.4+  0.1+    051231 696  0.4+  0.5+
    051113 703  1.0-  0.8-    051114 754  0.5-  0.4+    060106 291  0.1-  0.1-
    051113 703 (2.5-  1.2-)   051114 754  0.1+  0.3+    060106 291  0.3+  0.1-
    051113 703  0.7-  0.1+    051114 754  0.1-  0.2-    060106 291  0.3+  0.1-
    051113 854  1.2+  0.3-    051114 754  0.0   0.0     121201 J95  0.2-  0.5+
    051113 854  0.4+  0.3+    051114 754  0.3-  0.1+    121201 J95  0.1-  0.5-
    051113 854  0.2+  0.3+    051114 754  0.2-  0.2-    121201 J95  0.3+  0.1+
    051113 673  0.1+  0.2+    051116 J95  0.4+  0.2+    121201 J95  0.2+  0.3+
    051113 673  0.2+  0.3+    051116 J95  0.3+  0.2+    121203 J95  0.1-  0.0
    051113 673  0.4+  0.3+    051116 J95  0.2-  0.1+    121203 J95  0.1-  0.0
    051113 673  0.2+  0.2+    051119 147  0.4+  0.2-    121203 J95  0.0   0.5-
    051114 754  0.5-  0.5-    051119 147  0.2+  0.3-
    
    Ephemeris:
    2005 VE7                 a,e,i = 2.33, 0.72, 8                   q = 0.6627
    Date    TT    R. A. (2000) Decl.     Delta      r     Elong.  Phase     V
    2012 11 04    19 03 05.3 -09 33 46   0.5300  0.9045    64.9    83.1    19.7
    ...
    2012 11 19    21 10 25.7 -00 50 34   0.5526  1.0731    83.1    66.1    19.6
    ...
    2012 11 27    22 07 37.2 +03 23 19   0.6171  1.1654    90.2    57.8    19.8
    ...
    2012 12 03    22 43 48.4 +05 59 38   0.6837  1.2345    93.6    52.8    20.0
    2012 12 04    22 49 18.7 +06 22 52   0.6960  1.2460    94.0    52.1    20.0
    2012 12 05    22 54 40.6 +06 45 20   0.7087  1.2574    94.4    51.4    20.0
    ...
    2012 12 11    23 24 09.2 +08 45 47   0.7909  1.3257    96.0    47.6    20.3
    ...
    2012 12 19    23 57 23.8 +10 55 07   0.9140  1.4154    96.4    43.7    20.6
    ...
    2013 01 03    00 46 50.6 +13 55 53   1.1746  1.5785    93.6    38.4    21.3
    
    A. U. Tomatic                (C) Copyright 2012 MPC           M.P.E.C. 2012-X08
    

    Read MPEC 2012-X07 Read MPEC 2012-X09


    MPEC number:

    Enter an MPEC number in one of the following forms:

    • 1997-B01 (the full form)
    • J97B01 (the packed version of the full form)
    • B01 (the abbreviated form)